Brightest
NORAD ID: 16882
Int'l Code: 1986-055B
Perigee: 616.5 km
Apogee: 642.6 km
Inclination: 82.5 °
Period: 97.2 minutes
Semi major axis: 7000 km
Launch date: July 28, 1986
Source: Commonwealth of Independent States (former USSR) (CIS)
Note: This is a ROCKET BODY
Two Line Element Set (TLE):
1 16882U 86055B 13138.55522236 .00000416 00000-0 49239-4 0 1382
2 16882 082.5216 188.1652 0018622 275.7045 234.0727 14.82182287446991
Source:
NASA's NSSDC Master Catalog entry for SL-14 R/B